Location: Saint-Rémy-en-Mauges
(47.2685°N, 1.0792°W)
Time: 12:56:15
(UTC+01:00)

ISS - Visible Passes

Search period start: 11 February 2026 00:00
Search period end: 21 February 2026 00:00
Orbit: 413 x 429 km, 51.6° (Epoch: 10 February)

Date Brightness Start Highest point End Pass type
(mag) Time Alt. Az. Time Alt. Az. Time Alt. Az.
11 Feb -0.6 07:06:22 10° SSE 07:07:48 12° SE 07:09:14 10° ESE visible
13 Feb -1.9 07:07:14 10° SSW 07:10:12 29° SE 07:13:10 10° E visible
14 Feb -1.3 06:20:58 11° S 06:23:17 20° SE 06:25:48 10° E visible
15 Feb -0.9 05:36:20 13° SE 05:36:24 13° SE 05:37:59 10° ESE visible
15 Feb -3.5 07:09:24 10° SW 07:12:43 70° SSE 07:16:03 10° ENE visible
16 Feb -3.0 06:24:30 31° SSW 06:25:40 46° SSE 06:28:54 10° ENE visible
17 Feb -1.7 05:39:31 26° ESE 05:39:31 26° ESE 05:41:38 10° E visible
17 Feb -3.6 07:12:31 13° W 07:15:21 60° NNW 07:18:39 10° ENE visible
18 Feb -3.9 06:27:24 50° WSW 06:28:10 81° NNW 06:31:32 10° ENE visible
19 Feb -2.3 05:42:11 37° ENE 05:42:11 37° ENE 05:44:21 10° ENE visible
19 Feb -3.0 07:15:10 12° W 07:18:00 41° N 07:21:13 10° ENE visible
20 Feb -0.3 04:56:54 12° ENE 04:56:54 12° ENE 04:57:08 10° ENE visible
20 Feb -3.3 06:29:52 37° WNW 06:30:44 47° NNW 06:34:00 10° ENE visible
